{"data":{"norad_id":67901,"intl_designator":"2026-035Y","name":"STARLINK-36336","alt_names":[],"object_type":"PAYLOAD","status":"ACTIVE","operator":null,"country":"US","launch_date":"2026-02-21","launch_site_code":"AFWTR","launch_vehicle":null,"mission":null,"orbit_class":"UNKNOWN","rcs_meters":null,"size_class":null,"mass_kg":null,"dimensions":null,"purposes":["comms"],"wikipedia_slug":null,"has_3d_model":false,"image_url":null,"decayed_at":null,"tle_current":{"epoch":"2026-05-25T01:24:29.231424Z","epoch_age_seconds":73251,"freshness":"FRESH","line1":"1 67901U 26035Y   26145.05867166  .00022800  00000+0  70626-3 0  9991","line2":"2 67901  97.2837  78.6121 0001370  96.6956 263.4443 15.33452024 15694","mean_motion":15.33452024,"eccentricity":0.000137,"inclination_deg":97.2837,"raan_deg":78.6121,"arg_perigee_deg":96.6956,"mean_anomaly_deg":263.4443,"bstar":0.00070626,"rev_number":1569,"period_min":93.905774518056,"perigee_km":464.58469475489,"apogee_km":466.45985739653,"semimajor_km":6843.6592760757,"source":"CELESTRAK","updated_at":"2026-05-25T13:38:21.736507Z"}}}